Location: Haram ta Haram Freeway
(35.0583°N, 51.4202°E)
Time: 14:17:01
(UTC+04:30)

CAS-4A - Pass Details

Date: 04 July 2020
Orbit: 528 x 545 km, 43.0° (Epoch: 02 August)

Event Time Altitude Azimuth Distance (km) Brightness Sun altitude
Exits shadow 05:07:34 12° 242° (WSW) 1,663 ? -9.1°
Maximum altitude 05:11:21 88° 334° (NNW) 536 ? -8.4°
Drops below altitude 10° 05:15:25 10° 62° (ENE) 1,775 ? -7.8°
Sets 05:17:39 0° 62° (ENE) 2,663 ? -7.4°
